Location: Sawmill Trailhead
(33.5800°N, 116.4497°W)
Time: 04:06:30
(UTC-08:00)

Amateur Radio Satellites - All Passes

Search period start: 12 February 2016 03:36
Search period end: 13 February 2016 03:36
Location: Sawmill Trailhead, 33.5800°N, 116.4497°W

Satellite Date Start Highest point End Downlink Frequencies (MHz)
Time Altitude Azimuth
STARS 12 Feb 03:37:09 03:41:01 30° 262° (W) 03:44:54 437.465
Cosmos 2504 12 Feb 03:40:35 03:48:26 43° 88° (E) 03:56:35 435.465 / 435.565
YUBILEINY 12 Feb 03:41:59 03:50:09 43° 283° (WNW) 03:58:26 435.215
HORYU 2 12 Feb 03:46:16 03:50:26 39° 99° (E) 03:54:36 437.375
MOZHAYETS 4 12 Feb 04:13:31 04:16:43 19° 266° (W) 04:19:56
PHONESAT 2.4 12 Feb 04:24:36 04:27:52 83° 26° (NNE) 04:31:07 2401.200-2431.200
M-CUBED/EXP-1 PRIME 12 Feb 04:45:02 04:48:03 28° 291° (WNW) 04:51:15 437.505
Cubesat XI-IV 12 Feb 04:49:45 04:52:16 13° 92° (E) 04:54:45 437.490
AUBIESAT-1 12 Feb 04:52:30 04:55:35 28° 291° (WNW) 04:58:49 437.475
AO-7 12 Feb 04:58:05 05:05:19 35° 297° (WNW) 05:12:32 29.400- 29.500
CUBESAT XI-V 12 Feb 04:59:27 05:04:06 66° 259° (W) 05:08:48 437.345
STRAND 1 12 Feb 05:05:46 05:09:02 17° 66° (ENE) 05:12:18 437.568
SO-50 12 Feb 05:10:02 05:13:06 16° 312° (NW) 05:16:12 436.795
HORYU 2 12 Feb 05:23:58 05:26:39 16° 293° (WNW) 05:29:20 437.375
LilacSat-2 12 Feb 05:33:53 05:37:14 29° 97° (E) 05:40:35 437.200
Cosmos 2504 12 Feb 05:34:02 05:41:47 37° 285° (WNW) 05:49:50 435.465 / 435.565
PHONESAT 2.4 12 Feb 06:02:56 06:04:47 14° 218° (SW) 06:06:39 2401.200-2431.200
BRITE-PL 12 Feb 06:03:09 06:07:23 37° 97° (E) 06:11:21 437.365/2234.400
O/OREOS (USA 219) 12 Feb 06:04:47 06:08:07 21° 101° (E) 06:11:29 437.305
CUTE-I 12 Feb 06:12:42 06:18:06 85° 286° (WNW) 06:23:28 437.470
DOVE 4 12 Feb 06:25:02 06:27:01 13° 93° (E) 06:28:58 437.250
Cubesat XI-IV 12 Feb 06:27:21 06:32:40 62° 286° (WNW) 06:37:57 437.490
HO-68 12 Feb 06:28:50 06:30:54 11° 91° (E) 06:32:58 435.675
STRAND 1 12 Feb 06:42:54 06:47:47 47° 260° (W) 06:52:43 437.568
JUGNU 12 Feb 06:44:28 06:48:14 17° 170° (S) 06:51:59 437.505
GOMX 1 12 Feb 06:55:15 06:59:33 73° 100° (E) 07:03:42 467.674
CINEMA 3 12 Feb 07:01:10 07:01:51 10° 93° (E) 07:02:32 145.822/145.860
PRISM 12 Feb 07:01:11 07:05:20 88° 84° (E) 07:09:32 437.425
LilacSat-2 12 Feb 07:09:15 07:11:17 14° 291° (WNW) 07:13:18 437.200
GONETS M04 12 Feb 07:12:26 07:19:24 28° 84° (E) 07:26:22
CANX-2 12 Feb 07:14:54 07:18:24 24° 96° (E) 07:21:54 2200.000
BRITE-PL 12 Feb 07:42:51 07:45:28 15° 294° (WNW) 07:48:00 437.365/2234.400
O/OREOS (USA 219) 12 Feb 07:43:27 07:47:18 28° 296° (WNW) 07:51:11 437.305
COMPASS 1 12 Feb 07:47:26 07:51:03 27° 97° (E) 07:54:39 437.405
DOVE 4 12 Feb 08:01:02 08:04:53 36° 287° (WNW) 08:08:39 437.250
CUTE 1.7 + AOD 2 12 Feb 08:04:23 08:08:42 88° 108° (ESE) 08:13:00 437.475
SEEDS 12 Feb 08:06:00 08:10:14 67° 101° (E) 08:14:28 437.485
Oscar 11 12 Feb 08:08:20 08:10:51 15° 94° (E) 08:13:22 145.826/435.025
HO-68 12 Feb 08:12:08 08:19:23 86° 107° (ESE) 08:26:35 435.675
AAUSAT CUBESAT 2 12 Feb 08:13:07 08:17:11 45° 99° (E) 08:21:13 437.432
UWE-3 12 Feb 08:19:11 08:22:36 23° 96° (E) 08:26:03 435.000/436.395/437.385
CUBEBUG 2 12 Feb 08:23:45 08:27:41 37° 99° (E) 08:31:43 437.445
SRMSAT 12 Feb 08:25:58 08:29:21 16° 168° (SSE) 08:32:43 437.500
AO-85 12 Feb 08:28:50 08:33:37 37° 111° (ESE) 08:38:37 145.980
JUGNU 12 Feb 08:32:15 08:36:36 21° 180° (S) 08:40:54 437.505
Cosmos 2499 12 Feb 08:33:29 08:41:31 44° 88° (E) 08:49:45 435.465 / 435.565
CINEMA 3 12 Feb 08:35:13 08:39:12 47° 285° (WNW) 08:43:15 145.822/145.860
PCSat 12 Feb 08:37:08 08:41:06 21° 105° (ESE) 08:45:03 145.827
UNISAT 6 12 Feb 08:42:27 08:45:47 22° 70° (ENE) 08:49:05 437.425
CANX-2 12 Feb 08:50:45 08:54:07 23° 289° (WNW) 08:57:28 2200.000
HUMSAT D 12 Feb 09:03:19 09:05:22 13° 93° (E) 09:07:26 437.325/437.525
DELFI C3 12 Feb 09:05:36 09:09:23 37° 99° (E) 09:13:08 145.870
ZACube-1 12 Feb 09:06:22 09:10:35 59° 101° (E) 09:14:52 437.345
GONETS M04 12 Feb 09:07:17 09:15:39 52° 281° (W) 09:24:07
RS-15 12 Feb 09:10:46 09:19:38 29° 103° (ESE) 09:28:45 29.354- 29.394
FUNcube-1 12 Feb 09:13:57 09:18:12 71° 102° (ESE) 09:22:32 145.935
COMPASS 1 12 Feb 09:23:22 09:26:25 20° 290° (WNW) 09:29:28 437.405
AIST 1 12 Feb 09:24:45 09:28:46 35° 91° (E) 09:32:47
ANTELSAT 12 Feb 09:26:18 09:30:36 76° 77° (ENE) 09:34:53 437.575/2403.000
TIGRISAT 12 Feb 09:32:12 09:36:31 85° 74° (ENE) 09:40:48 435.000
Oscar 11 12 Feb 09:43:04 09:47:04 37° 287° (WNW) 09:51:03 145.826/435.025
BUGSAT 1 12 Feb 09:46:49 09:48:30 12° 67° (ENE) 09:50:10 437.445
AAUSAT CUBESAT 2 12 Feb 09:50:36 09:52:14 12° 293° (WNW) 09:53:52 437.432
UWE-3 12 Feb 09:55:34 09:58:57 23° 289° (WNW) 10:02:23 435.000/436.395/437.385
POLYITAN 1 12 Feb 09:57:38 10:01:31 37° 73° (ENE) 10:05:25 437.675
QB50P2 12 Feb 09:58:04 10:02:01 39° 73° (ENE) 10:05:57 145.880/145.840
DX 1 12 Feb 10:01:34 10:02:43 11° 93° (E) 10:03:50 434.975-435.025
CUBEBUG 2 12 Feb 10:01:38 10:04:01 15° 291° (WNW) 10:06:24 437.445
HO-68 12 Feb 10:02:13 10:06:08 16° 301° (WNW) 10:10:03 435.675
AO-85 12 Feb 10:09:39 10:14:12 28° 308° (NW) 10:18:54 145.980
SRMSAT 12 Feb 10:13:33 10:17:51 21° 178° (S) 10:22:09 437.500
ESTCUBE 1 12 Feb 10:18:11 10:21:37 21° 95° (E) 10:25:00 437.505/2401.250
UNISAT 6 12 Feb 10:18:49 10:22:22 24° 263° (W) 10:25:53 437.425
PCSat 12 Feb 10:19:00 10:24:07 43° 300° (WNW) 10:29:17 145.827
50 SAT 12 Feb 10:19:57 10:22:54 21° 96° (E) 10:25:51 437.505
JUGNU 12 Feb 10:21:18 10:24:57 17° 190° (S) 10:28:34 437.505
POPSAT HIP 1 12 Feb 10:26:45 10:30:59 85° 77° (ENE) 10:35:14 437.405
Cosmos 2499 12 Feb 10:26:49 10:34:38 36° 285° (WNW) 10:42:39 435.465 / 435.565
NANOSAT C BR1 12 Feb 10:29:39 10:33:52 90° 168° (SSE) 10:38:07 145.865
DUCHIFAT 1 12 Feb 10:29:48 10:34:01 86° 77° (ENE) 10:38:14 145.980
HUMSAT D 12 Feb 10:37:13 10:41:07 39° 286° (WNW) 10:45:04 437.325/437.525
QB50P1 12 Feb 10:39:09 10:43:22 66° 259° (W) 10:47:34 145.935-145.965
DELFI C3 12 Feb 10:41:56 10:43:56 13° 292° (WNW) 10:45:55 145.870
Oscar 19 12 Feb 11:01:32 11:02:04 10° 63° (ENE) 11:02:35 437.125/150
VELOX 1 12 Feb 11:03:27 11:07:50 61° 101° (ESE) 11:12:09 145.980
AIST 1 12 Feb 11:03:54 11:06:27 15° 285° (WNW) 11:09:01
UKube-1 12 Feb 11:17:38 11:21:58 83° 103° (ESE) 11:26:16 .
BUGSAT 1 12 Feb 11:19:26 11:23:28 45° 260° (W) 11:27:28 437.445
RS-15 12 Feb 11:20:00 11:30:58 67° 302° (WNW) 11:42:36 29.354- 29.394
AISAT 12 Feb 11:20:38 11:25:03 77° 283° (WNW) 11:29:24 437.250
SPROUT 12 Feb 11:22:28 11:26:06 27° 97° (E) 11:29:43 437.525
DANDE 12 Feb 11:23:37 11:26:43 14° 62° (ENE) 11:29:27 436.750
CUBEBUG 1 12 Feb 11:32:02 11:36:22 70° 284° (WNW) 11:40:40 437.445
DX 1 12 Feb 11:34:55 11:39:08 50° 286° (WNW) 11:43:18 434.975-435.025
POLYITAN 1 12 Feb 11:35:12 11:37:26 14° 266° (W) 11:39:41 437.675
QB50P2 12 Feb 11:35:50 11:37:57 13° 266° (W) 11:40:03 145.880/145.840
Gurwin Techsat 1B 12 Feb 11:53:42 11:56:04 13° 64° (ENE) 11:58:26 435.225
50 SAT 12 Feb 11:53:58 11:56:46 20° 289° (WNW) 11:59:34 437.505
ESTCUBE 1 12 Feb 11:54:28 11:58:23 29° 289° (WNW) 12:02:16 437.505/2401.250
SRMSAT 12 Feb 12:02:25 12:06:22 18° 188° (S) 12:10:18 437.500
YUBILEINY 12 Feb 12:03:32 12:07:07 13° 65° (ENE) 12:10:40 435.215
SO-50 12 Feb 12:03:48 12:07:16 19° 50° (NE) 12:10:38 436.795
JAS-2 12 Feb 12:04:13 12:11:21 44° 71° (ENE) 12:17:54 435.910
CUSAT 1 12 Feb 12:06:57 12:12:06 67° 80° (E) 12:15:55 437.405
ITAMSAT 1 12 Feb 12:16:35 12:17:14 10° 62° (ENE) 12:17:54 435.822/435.867
Oscar 19 12 Feb 12:35:27 12:40:38 82° 257° (WSW) 12:45:51 437.125/150
SWISSCUBE 12 Feb 12:44:02 12:46:48 15° 94° (E) 12:49:33 437.505
TISAT 1 12 Feb 12:55:37 12:59:44 62° 284° (WNW) 13:03:51 437.305
SPROUT 12 Feb 12:58:47 13:01:53 20° 290° (WNW) 13:04:58 437.525
DANDE 12 Feb 13:04:27 13:10:41 61° 267° (W) 13:15:16 436.750
ITUPSAT 1 12 Feb 13:21:04 13:25:28 35° 98° (E) 13:29:51 437.325
BEESAT 12 Feb 13:27:26 13:31:59 42° 99° (E) 13:36:31 436.000
Gurwin Techsat 1B 12 Feb 13:30:07 13:35:23 67° 258° (WSW) 13:40:41 435.225
RS-15 12 Feb 13:38:38 13:46:15 19° 329° (NNW) 13:54:08 29.354- 29.394
SO-50 12 Feb 13:43:28 13:47:57 42° 247° (WSW) 13:52:15 436.795
Cosmos 2504 12 Feb 13:44:05 13:44:40 10° 62° (ENE) 13:45:14 435.465 / 435.565
ISS 12 Feb 13:46:13 13:49:28 81° 139° (SE) 13:52:43 145.825
JAS-2 12 Feb 13:49:34 13:56:16 33° 263° (W) 14:02:34 435.910
ITAMSAT 1 12 Feb 13:50:47 13:55:57 82° 257° (WSW) 14:01:11 435.822/435.867
SRMSAT 12 Feb 13:54:17 13:54:49 10° 197° (SSW) 13:55:21 437.500
YUBILEINY 12 Feb 13:56:24 14:05:17 80° 84° (E) 14:14:04 435.215
Cosmos 2491 12 Feb 13:57:48 14:06:03 49° 89° (E) 14:14:17 435.465 / 435.565
AO-7 12 Feb 13:59:24 14:07:12 45° 65° (ENE) 14:15:00 29.400- 29.500
KKS-1 12 Feb 14:19:51 14:22:55 18° 95° (E) 14:25:57 437.445
SWISSCUBE 12 Feb 14:20:12 14:24:45 45° 287° (WNW) 14:29:18 437.505
BEESAT 3 12 Feb 14:34:42 14:35:42 11° 107° (ESE) 14:36:40 437.485
MOZHAYETS 4 12 Feb 14:37:08 14:38:02 10° 92° (E) 14:38:54
HORYU 2 12 Feb 14:41:02 14:44:27 22° 69° (ENE) 14:47:52 437.375
ITUPSAT 1 12 Feb 14:59:32 15:03:02 20° 292° (WNW) 15:06:31 437.325
BEESAT 2 12 Feb 15:02:59 15:05:20 15° 109° (ESE) 15:07:42 435.950
BEESAT 12 Feb 15:06:21 15:09:24 17° 293° (WNW) 15:12:26 436.000
ISS 12 Feb 15:25:00 15:26:17 12° 331° (NNW) 15:27:32 145.825
M-CUBED/EXP-1 PRIME 12 Feb 15:28:28 15:31:59 43° 255° (WSW) 15:35:18 437.505
STARS 12 Feb 15:29:56 15:34:17 65° 101° (ESE) 15:38:36 437.465
Cosmos 2504 12 Feb 15:31:15 15:39:44 71° 82° (E) 15:47:32 435.465 / 435.565
AUBIESAT-1 12 Feb 15:35:29 15:38:59 43° 255° (WSW) 15:42:17 437.475
AO-7 12 Feb 15:52:31 15:59:57 35° 261° (W) 16:07:27 29.400- 29.500
CUTE-I 12 Feb 15:54:54 15:56:29 11° 62° (ENE) 15:58:03 437.470
KKS-1 12 Feb 15:55:35 15:59:30 31° 288° (WNW) 16:03:23 437.445
Cosmos 2491 12 Feb 15:55:39 16:03:02 30° 286° (WNW) 16:10:28 435.465 / 435.565
YUBILEINY 12 Feb 15:55:48 16:00:55 17° 280° (W) 16:06:01 435.215
RS-15 12 Feb 16:02:30 16:06:05 11° 7° (N) 16:09:43 29.354- 29.394
Cubesat XI-IV 12 Feb 16:07:54 16:11:01 16° 65° (ENE) 16:14:09 437.490
BEESAT 3 12 Feb 16:09:09 16:12:59 47° 301° (WNW) 16:16:50 437.485
MOZHAYETS 4 12 Feb 16:10:55 16:15:29 59° 285° (WNW) 16:20:03
HORYU 2 12 Feb 16:17:10 16:20:51 26° 263° (W) 16:24:33 437.375
O/OREOS (USA 219) 12 Feb 16:18:07 16:21:44 22° 63° (ENE) 16:25:20 437.305
BEESAT 2 12 Feb 16:39:13 16:42:54 34° 303° (WNW) 16:46:37 435.950
CUBESAT XI-V 12 Feb 17:00:15 17:04:41 41° 98° (E) 17:09:04 437.345
AO-85 12 Feb 17:06:31 17:08:52 13° 44° (NE) 17:11:09 145.980
BRITE-PL 12 Feb 17:08:34 17:13:40 35° 72° (ENE) 17:18:39 437.365/2234.400
AIST 2 12 Feb 17:20:44 17:24:47 54° 115° (ESE) 17:28:52 435.215
Cosmos 2504 12 Feb 17:26:43 17:32:02 19° 280° (W) 17:37:09 435.465 / 435.565
DOVE 4 12 Feb 17:27:17 17:29:06 12° 67° (ENE) 17:30:52 437.250
CUTE-I 12 Feb 17:30:28 17:35:47 78° 257° (WSW) 17:41:09 437.470
Cubesat XI-IV 12 Feb 17:45:23 17:50:35 55° 260° (W) 17:55:49 437.490
LilacSat-2 12 Feb 17:45:41 17:49:23 49° 260° (W) 17:53:04 437.200
O/OREOS (USA 219) 12 Feb 17:57:09 18:01:04 28° 257° (WSW) 18:04:59 437.305
GOMX 1 12 Feb 17:58:05 18:03:20 54° 75° (ENE) 18:08:22 467.674
CANX-2 12 Feb 18:06:19 18:07:19 11° 66° (ENE) 18:08:18 2200.000
RS-15 12 Feb 18:14:32 18:24:43 30° 42° (NE) 18:34:58 29.354- 29.394
HO-68 12 Feb 18:36:17 18:42:57 43° 68° (ENE) 18:49:37 435.675
COMPASS 1 12 Feb 18:36:36 18:37:57 11° 67° (ENE) 18:39:20 437.405
CUBESAT XI-V 12 Feb 18:38:48 18:41:41 16° 293° (WNW) 18:44:33 437.345
AO-85 12 Feb 18:45:04 18:50:05 77° 245° (WSW) 18:54:37 145.980
BRITE-PL 12 Feb 18:47:18 18:52:03 27° 265° (W) 18:56:43 437.365/2234.400
PRISM 12 Feb 18:48:13 18:50:50 16° 95° (E) 18:53:25 437.425
CUTE 1.7 + AOD 2 12 Feb 18:53:13 18:57:03 35° 73° (ENE) 19:00:54 437.475
SEEDS 12 Feb 18:54:13 18:57:43 26° 72° (ENE) 19:01:14 437.485
STRAND 1 12 Feb 18:57:10 19:02:21 82° 103° (ESE) 19:07:31 437.568
AAUSAT CUBESAT 2 12 Feb 19:00:30 19:03:20 18° 70° (ENE) 19:06:12 437.432
DOVE 4 12 Feb 19:01:13 19:06:17 65° 259° (W) 19:11:07 437.250
AIST 2 12 Feb 19:01:40 19:03:36 13° 311° (NW) 19:05:31 435.215
PCSat 12 Feb 19:10:31 19:15:56 64° 63° (ENE) 19:21:17 145.827
UWE-3 12 Feb 19:14:29 19:15:57 12° 67° (ENE) 19:17:26 435.000/436.395/437.385
CUBEBUG 2 12 Feb 19:18:53 19:21:58 20° 70° (ENE) 19:25:01 437.445
GONETS M04 12 Feb 19:22:03 19:30:49 66° 81° (E) 19:39:35
CINEMA 3 12 Feb 19:32:14 19:36:53 89° 255° (WSW) 19:41:20 145.822/145.860
GOMX 1 12 Feb 19:38:26 19:41:34 15° 267° (W) 19:44:37 467.674
CANX-2 12 Feb 19:38:35 19:42:40 51° 260° (W) 19:46:47 2200.000
DELFI C3 12 Feb 19:49:43 19:51:38 13° 68° (ENE) 19:53:34 145.870
ZACube-1 12 Feb 19:58:49 20:02:21 27° 72° (ENE) 20:05:52 437.345
FUNcube-1 12 Feb 20:05:57 20:09:40 31° 73° (ENE) 20:13:19 145.935
COMPASS 1 12 Feb 20:09:05 20:13:04 47° 260° (W) 20:17:06 437.405
ISS 12 Feb 20:17:51 20:19:58 16° 32° (NNE) 20:22:05 145.825
PRISM 12 Feb 20:22:30 20:26:12 31° 288° (WNW) 20:29:51 437.425
Cosmos 2499 12 Feb 20:22:51 20:31:03 71° 82° (E) 20:38:34 435.465 / 435.565
HO-68 12 Feb 20:24:31 20:30:39 31° 263° (W) 20:36:53 435.675
RS-15 12 Feb 20:26:22 20:38:39 83° 245° (WSW) 20:50:57 29.354- 29.394
SEEDS 12 Feb 20:30:23 20:33:23 19° 265° (W) 20:36:24 437.485
CUTE 1.7 + AOD 2 12 Feb 20:30:38 20:32:59 14° 267° (W) 20:35:19 437.475
Oscar 11 12 Feb 20:33:10 20:37:27 82° 260° (W) 20:41:46 145.826/435.025
AAUSAT CUBESAT 2 12 Feb 20:35:04 20:38:37 28° 263° (W) 20:42:12 437.432
UWE-3 12 Feb 20:47:54 20:52:01 46° 260° (W) 20:56:03 435.000/436.395/437.385
CUBEBUG 2 12 Feb 20:54:43 20:58:25 27° 263° (W) 21:02:02 437.445
PCSat 12 Feb 20:56:13 20:58:41 13° 257° (WSW) 21:01:09 145.827
AIST 1 12 Feb 21:12:58 21:17:19 89° 264° (W) 21:21:35
ESTCUBE 1 12 Feb 21:15:23 21:17:20 13° 66° (ENE) 21:19:18 437.505/2401.250
GONETS M04 12 Feb 21:20:33 21:26:47 22° 278° (W) 21:33:03
ANTELSAT 12 Feb 21:22:29 21:25:52 21° 96° (E) 21:29:16 437.575/2403.000
DELFI C3 12 Feb 21:22:32 21:26:11 36° 262° (W) 21:29:53 145.870
HUMSAT D 12 Feb 21:24:10 21:28:15 82° 75° (ENE) 21:32:20 437.325/437.525
TIGRISAT 12 Feb 21:28:04 21:31:35 23° 96° (E) 21:35:09 435.000
ZACube-1 12 Feb 21:35:39 21:38:37 19° 265° (W) 21:41:34 437.345
FUNcube-1 12 Feb 21:43:20 21:45:56 16° 265° (W) 21:48:32 145.935
ISS 12 Feb 21:53:28 21:56:35 45° 227° (SW) 21:59:40 145.825
VELOX 1 12 Feb 21:56:57 22:00:56 33° 72° (ENE) 22:04:55 145.980
UKube-1 12 Feb 22:08:13 22:12:16 40° 73° (ENE) 22:16:20 .
UNISAT 6 12 Feb 22:13:15 22:17:39 88° 104° (ESE) 22:22:09 437.425
AISAT 12 Feb 22:13:49 22:18:11 55° 74° (ENE) 22:22:33 437.250
SPROUT 12 Feb 22:13:50 22:15:55 13° 67° (ENE) 22:18:02 437.525
POPSAT HIP 1 12 Feb 22:16:38 22:19:33 18° 95° (E) 22:22:28 437.405
Cosmos 2499 12 Feb 22:18:09 22:23:05 18° 280° (W) 22:27:50 435.465 / 435.565
DUCHIFAT 1 12 Feb 22:19:06 22:21:57 18° 95° (E) 22:24:50 145.980
NANOSAT C BR1 12 Feb 22:19:06 22:22:07 19° 95° (E) 22:25:06 145.865
CUBEBUG 1 12 Feb 22:23:38 22:27:58 56° 75° (ENE) 22:32:19 437.445
DX 1 12 Feb 22:25:57 22:30:19 82° 77° (ENE) 22:34:43 434.975-435.025
QB50P1 12 Feb 22:28:26 22:31:57 26° 97° (E) 22:35:28 145.935-145.965
50 SAT 12 Feb 22:29:08 22:32:49 75° 258° (WSW) 22:36:32 437.505
PHONESAT 2.4 12 Feb 22:36:51 22:40:06 67° 152° (SSE) 22:43:22 2401.200-2431.200
RS-15 12 Feb 22:42:24 22:49:19 17° 262° (W) 22:56:16 29.354- 29.394
ESTCUBE 1 12 Feb 22:49:16 22:53:39 51° 260° (W) 22:58:06 437.505/2401.250
ANTELSAT 12 Feb 22:58:48 23:02:31 27° 288° (WNW) 23:06:17 437.575/2403.000
TIGRISAT 12 Feb 23:04:37 23:08:10 25° 289° (WNW) 23:11:47 435.000
BUGSAT 1 12 Feb 23:05:29 23:09:06 31° 98° (E) 23:12:41 437.445
POLYITAN 1 12 Feb 23:21:56 23:26:06 64° 284° (WNW) 23:30:15 437.675
QB50P2 12 Feb 23:22:25 23:26:34 60° 284° (WNW) 23:30:43 145.880/145.840
CUSAT 1 12 Feb 23:23:06 23:27:45 17° 83° (E) 23:32:25 437.405
VELOX 1 12 Feb 23:34:23 23:37:26 18° 265° (W) 23:40:29 145.980
TISAT 1 12 Feb 23:43:05 23:47:12 54° 75° (ENE) 23:51:19 437.305
UKube-1 12 Feb 23:46:14 23:48:27 14° 266° (W) 23:50:40 .
SPROUT 12 Feb 23:47:26 23:51:30 42° 261° (W) 23:55:36 437.525
SWISSCUBE 12 Feb 23:48:08 23:49:47 12° 64° (ENE) 23:51:27 437.505
POPSAT HIP 1 12 Feb 23:51:44 23:55:19 28° 288° (WNW) 23:58:56 437.405
DUCHIFAT 1 12 Feb 23:54:04 23:57:40 28° 288° (WNW) 00:01:15 145.980
AISAT 12 Feb 23:54:09 23:54:56 10° 268° (W) 23:55:44 437.250
NANOSAT C BR1 12 Feb 23:54:16 23:57:49 27° 288° (WNW) 00:01:20 145.865
CUBEBUG 1 13 Feb 00:04:16 00:04:32 10° 268° (W) 00:04:49 437.445
QB50P1 13 Feb 00:04:28 00:07:34 20° 290° (WNW) 00:10:40 145.935-145.965
Cosmos 2491 13 Feb 00:14:26 00:20:16 19° 69° (ENE) 00:26:05 435.465 / 435.565
PHONESAT 2.4 13 Feb 00:14:33 00:17:31 30° 348° (NNW) 00:20:29 2401.200-2431.200
DANDE 13 Feb 00:22:57 00:29:28 30° 86° (E) 00:36:28 436.750
ITUPSAT 1 13 Feb 00:24:15 00:28:11 26° 70° (ENE) 00:32:08 437.325
BEESAT 13 Feb 00:30:08 00:34:16 31° 71° (ENE) 00:38:27 436.000
BEESAT 3 13 Feb 00:30:44 00:34:05 26° 55° (NE) 00:37:25 437.485
BUGSAT 1 13 Feb 00:41:51 00:44:12 15° 292° (WNW) 00:46:31 437.445
Oscar 19 13 Feb 00:51:15 00:56:12 49° 100° (E) 01:01:08 437.125/150
YUBILEINY 13 Feb 00:59:40 01:04:48 17° 80° (E) 01:09:56 435.215
BEESAT 2 13 Feb 01:01:03 01:04:45 35° 57° (ENE) 01:08:24 435.950
CUSAT 1 13 Feb 01:01:05 01:09:04 87° 276° (W) 01:17:08 437.405
JAS-2 13 Feb 01:03:49 01:08:57 43° 99° (E) 01:13:50 435.910
KKS-1 13 Feb 01:16:08 01:17:19 11° 65° (ENE) 01:18:31 437.445
SWISSCUBE 13 Feb 01:22:18 01:27:00 62° 259° (WSW) 01:31:45 437.505
AIST 2 13 Feb 01:47:45 01:49:23 12° 49° (NE) 01:51:00 435.215
Gurwin Techsat 1B 13 Feb 01:50:23 01:55:42 69° 102° (ESE) 02:00:59 435.225
PHONESAT 2.4 13 Feb 01:52:35 01:55:19 24° 5° (N) 01:58:03 2401.200-2431.200
ITUPSAT 1 13 Feb 02:01:56 02:05:54 26° 263° (W) 02:09:53 437.325
DANDE 13 Feb 02:04:21 02:11:55 54° 283° (WNW) 02:20:13 436.750
AO-7 13 Feb 02:07:28 02:12:24 17° 93° (E) 02:17:16 29.400- 29.500
ITAMSAT 1 13 Feb 02:07:47 02:12:53 50° 101° (E) 02:17:56 435.822/435.867
BEESAT 13 Feb 02:08:24 02:12:02 22° 264° (W) 02:15:42 436.000
BEESAT 3 13 Feb 02:08:45 02:11:39 20° 250° (WSW) 02:14:31 437.485
Cosmos 2491 13 Feb 02:09:09 02:17:54 76° 266° (W) 02:26:39 435.465 / 435.565
SO-50 13 Feb 02:15:09 02:17:48 15° 107° (ESE) 02:20:29 436.795
STARS 13 Feb 02:22:47 02:26:45 34° 72° (ENE) 02:30:42 437.465
Oscar 19 13 Feb 02:31:56 02:35:05 17° 294° (WNW) 02:38:13 437.125/150
BEESAT 2 13 Feb 02:40:08 02:42:18 14° 251° (WSW) 02:44:27 435.950
CUSAT 1 13 Feb 02:47:31 02:52:13 16° 293° (WNW) 02:56:54 437.405
KKS-1 13 Feb 02:48:57 02:53:21 58° 259° (W) 02:57:45 437.445
JAS-2 13 Feb 02:50:03 02:53:38 18° 295° (WNW) 02:57:05 435.910
YUBILEINY 13 Feb 02:51:40 03:00:26 80° 277° (W) 03:09:19 435.215
MOZHAYETS 4 13 Feb 03:08:25 03:12:58 80° 77° (ENE) 03:17:33
M-CUBED/EXP-1 PRIME 13 Feb 03:12:34 03:14:20 13° 101° (E) 03:16:09 437.505
AUBIESAT-1 13 Feb 03:19:07 03:20:53 13° 101° (E) 03:22:43 437.475
AIST 2 13 Feb 03:24:10 03:28:13 57° 244° (WSW) 03:32:13 435.215
PHONESAT 2.4 13 Feb 03:29:45 03:32:58 53° 21° (NNE) 03:36:10 2401.200-2431.200
